STARLINK-3043, 49179

Orbit data source: Space-Track

STARLINK-3043, 49179 is a payload satellite owned by SpaceX/Seattle (US) in LEO that was launched on Tue, 14 Sep 2021 UTC via an FALCON 9 launch vehicle from the Air Force Western Test Range (AFWTR). Payload-class satellites include a variety of spacecraft equipped with specific instruments for various scientific and technological missions. These include communications satellites like Starlink; space stations such as the ISS; scientific satellites like the Hubble; Earth observation satellites from companies like Planet Labs, Umbra, and HawkEye 360; GPS; miniature CubeSats for education and research; and military/defense satellites.

Loading next visibility...
Identifier
49179, 2021-082BB
Orbit
LEO
Country
Flag of USUS
Related business
Manufacturer
SpaceX/Seattle
Mission
Operational Commercial Communications
Bus & Motor
STARLINK, Unknown motor
Mass
297 kg wet, ~275 kg dry
Launch date (UTC)
2021-09-14 (4 years ago)
Launch vehicle
FALCON 9
Launch site
Air Force Western Test Range (AFWTR)
Object type
Payload
Rocket body
Debris
Shape & HBR
Box + 1 Pan, 10.1 m
Radar Cross Section
13.562 m², Large (>1 m²)

Expand to show TLE details & history
Last TLE update: 11 hours ago

TLE from 11 hours ago
0 STARLINK-3043
1 49179U 21082BB  26035.53379384  .00000874  00000-0  81063-4 0  9992
2 49179  70.0023 338.0382 0002253 285.4966  74.5945 14.98329265241991
Epoch: 2026-02-04T12:48Z
TLE epoch observation values (Epoch: 2026-02-04T12:48:39.787Z)
Latitude
0.00004°
Longitude
11.17343°
Altitude
574.066 km
Speed
7.574 km/s
True Right ascension
22h 32m 09s
True Declination
0° 00' 00"
Sunlit
Object was in daylight at epoch
Visualization orbit readout
Latitude
Unknown
Longitude
Unknown
Altitude
Unknown
Speed
Unknown
Apparent Right ascension
Unknown
Apparent Declination
Unknown
Sunlit
N/A
Visualization observer readout
Local Sidereal Time
01:43:43
Azimuth
Unknown
Elevation
Unknown
Doppler factor
Unknown
Orbital elements
Apogee altitude
571.572 km
Perigee altitude
568.441 km
Semi-major axis
6,948.143 km
Eccentricity
0.00023
Inclination
70.0023°
RAAN
338.0382°
Arg. of periapsis
285.4966°
True anomaly
74.61939°
Mean anomaly
74.5945°
Eccentric anomaly
74.60695°
Mean motion
3.74749 °/min
Orbital period
96.06 mins
BSTAR
0.000081063
Loading maneuver chart data...
Computing Atmospheric mass density...
Loading historical data...
Loading historical data...
Loading historical data...
Loading historical data...
Loading historical data...
Loading historical data...
Loading historical data...

Documentation

Showing up to 5 results
|